7 * 24
多渠道服务支持
RADUGA 18(虹18号)是独联体(CIS)继承自苏联的第一代“虹”系列地球同步轨道通信卫星,于1986年1月17日发射入轨。作为苏联/俄罗斯首个同步轨道通信卫星家族成员,它采用KAUR-3平台研制,搭载C频段转发器,主要承担东半球区域军事通信、民用电视广播及电报电话业务,为俄联邦及周边区域提供稳定通信支撑,是冷战时期苏联通信卫星组网的重要组成部分。
俄罗斯(独联体)
(CIS)
| 数据来源 | 国际轨道数据 |
| 星历时间: | 2026-09-11T03:44:39+0800 11小时前 查看轨道信息 |
| 半长轴: | 42578.419km |
| 偏心率: | 0.0070765 |
| 轨道倾角: | 10.384° |
| 近地点辐角 | 205.148° |
| 升交点赤经 | 320.689° |
| 平近点角 | 138.270° |
| 近地点: | 35898.975km |
| 远地点: | 36501.589km |
| 周期: | 1457.283分钟 |
| 每日圈数: | 0.98814 |